Terminal Aerodrome Forecast
Issued by NWS

Home | Current Version | Previous Version | Text Only | Print | Product List | Glossary On
Versions: 1 2 3 4 5 6 7 8 9 10 11 12 13 14 15 16 17 18 19 20 21 22 23 24 25 26 27 28
000
FTUS46 KOTX 041720
TAFCOE
TAF
KCOE 041720Z 0418/0518 19010KT P6SM BKN250
     FM042200 23012G20KT P6SM FEW080 SCT250
     FM050300 18007KT P6SM SCT200
      AMD LTD TO CLD AND VIS=

USA.gov is the U.S. government's official web portal to all federal, state and local government web resources and services.